Location: Brno
(49.2000°N, 16.6330°E)
Time: 06:46:47
(UTC+01:00)

Daily predictions for brighter satellites

Satellite Brightness Start Highest point End
(mag) Time Altitude Azimuth Time Altitude Azimuth Time Altitude Azimuth
Cosmos 1844 Rocket 3.4 16:56:26 10° NW 17:02:02 61° WSW 17:07:34 10° SSE
Tsikada Rocket 4.1 16:55:42 10° S 17:02:06 78° E 17:08:32 10° NNE
Cosmos 1151 Rocket 3.4 17:00:03 10° N 17:04:10 43° ENE 17:08:14 10° SSE
Cosmos 1076 Rocket 4.2 17:01:15 10° SSW 17:05:27 59° WNW 17:09:42 10° N
Cosmos 841 Rocket 3.6 17:00:30 10° S 17:05:43 67° ESE 17:10:58 10° NNE
NOSS 0 Rocket 4.5 17:01:12 10° S 17:06:57 41° ESE 17:12:44 10° NE
Cosmos 44 4.2 17:03:20 10° S 17:08:01 34° ESE 17:12:32 10° NE
Thor Agena Rocket 4.0 17:03:45 10° NNE 17:08:45 42° E 17:13:39 10° S
Cosmos 1515 Rocket 3.6 17:06:11 10° N 17:10:41 72° E 17:15:07 10° SSE
Lacrosse 4 Rocket 2.8 17:09:36 10° N 17:12:32 19° NE 17:15:26 10° E
Cosmos 1300 2.9 17:09:21 10° N 17:13:05 47° ENE 17:16:48 10° SSE
SL-16 R/B 4.0 17:10:37 10° W 17:15:09 24° NW 17:19:44 10° NNE
ALOS 4.0 17:13:17 10° E 17:15:29 13° NE 17:17:41 10° NNE
SPOT 3 Rocket 3.5 17:10:38 10° SSE 17:15:47 81° ENE 17:21:00 10° NNW
Cosmos 1634 Rocket 4.0 17:09:45 10° N 17:15:58 70° E 17:22:06 10° SSE
SL-14 R/B 3.8 17:20:19 10° SSE 17:23:58 37° E 17:27:41 10° NNE
Cosmos 1340 Rocket 3.9 17:21:31 10° SE 17:24:38 23° E 17:27:45 10° NE
Cosmos 2360 Rocket 3.4 17:20:38 10° WSW 17:25:51 38° NW 17:31:06 10° NNE
Cosmos 2333 4.3 17:21:11 10° SSW 17:26:48 79° WNW 17:32:26 10° NNE
Cosmos 1484 Rocket 2.9 17:23:15 10° SSE 17:27:06 55° ENE 17:31:03 10° N
Cosmos 2084 3.2 17:24:05 10° SSW 17:27:54 64° SE 17:31:30 11° NE
Cosmos 1980 Rocket 4.5 17:26:04 10° NW 17:28:07 12° NNW 17:30:09 10° N
Cosmos 1500 Rocket 3.5 17:24:12 10° S 17:28:31 68° E 17:32:53 10° NNE
ATLAS 3B R/B 4.1 17:23:21 10° WNW 17:29:16 25° N 17:34:57 10° NE
Cosmos 371 Rocket 3.3 17:25:15 10° SSW 17:30:01 72° ESE 17:34:50 10° NNE
Cosmos 1980 3.9 17:25:30 10° S 17:31:01 55° ESE 17:36:33 10° NE
CORIOLIS 4.4 17:26:48 10° S 17:32:09 78° WSW 17:37:34 10° NNW
SMAP 3.6 17:27:45 10° S 17:32:22 66° WSW 17:37:02 10° NNW
ATLAS 5 CENTAUR R/B 3.7 17:29:36 10° NW 17:33:42 21° NNE 17:37:31 12° NE
Cosmos 2058 3.4 17:31:23 10° SSE 17:35:10 38° E 17:38:59 10° NNE
Cosmos 1461 4.4 17:33:48 10° SSE 17:36:46 19° ESE 17:38:38 14° E
USA 215 3.3 17:30:34 10° ESE 17:37:06 74° NNE 17:43:39 10° NW
Sich 1 4.4 17:34:36 10° SE 17:37:43 19° E 17:40:31 11° NE
Meteor 1-28 Rocket 4.2 17:35:07 10° NE 17:38:15 25° E 17:41:21 10° SSE
IDEFIX/ARIANE 42P 3.5 17:34:54 10° S 17:39:59 52° W 17:45:08 10° NNW
MSX 4.1 17:34:18 10° S 17:40:00 77° WSW 17:45:47 10° NNW
Timation 1 Rocket 4.3 17:35:07 10° NNW 17:41:10 77° ENE 17:47:11 10° SE
NOAA 12 4.4 17:37:54 10° SE 17:42:50 43° ENE 17:47:49 10° N
CZ-4C R/B 3.9 17:40:15 10° NW 17:45:19 24° N 17:49:47 14° NE
Cosmos 1633 Rocket 4.3 17:42:56 10° SE 17:46:09 20° E 17:47:58 16° NE
Cosmos 2219 Rocket 2.3 17:44:31 10° SSW 17:50:09 78° WNW 17:55:49 10° NNE
Cosmos 372 Rocket 4.3 17:45:09 10° NNW 17:50:14 70° WSW 17:55:18 10° SSE
Cosmos 1763 Rocket 4.4 17:45:20 10° SW 17:50:21 48° WNW 17:55:20 10° NNE
Cosmos 2333 Rocket 2.2 17:46:07 10° SSW 17:51:47 88° ESE 17:57:29 10° NNE
Cosmos 44 Rocket 3.5 17:46:49 10° SW 17:51:57 80° NW 17:56:34 12° NE
Cosmos 1943 Rocket 3.9 17:49:20 10° N 17:52:07 14° NNE 17:53:16 13° NE
Cosmos 1356 Rocket 4.2 17:52:52 10° SSE 17:56:16 27° E 17:58:00 20° NE
Cosmos 2322 Rocket 4.5 17:54:08 10° WNW 17:57:20 15° NNW 18:00:32 10° N
Cosmos 2278 Rocket 3.2 17:52:49 10° NW 17:58:18 50° WSW 18:03:44 10° S
Cosmos 540 Rocket 3.4 17:54:40 10° SSW 17:59:51 85° ESE 18:05:03 10° NNE
Lacrosse 5 rocket 3.2 17:57:22 10° WNW 18:00:40 29° SW 18:04:07 10° SSE
Cosmos 2279 Rocket 4.0 17:57:34 10° N 18:03:49 88° W 18:10:04 10° S
Cosmos 1707 Rocket 3.5 18:01:49 10° N 18:06:07 61° ENE 18:10:24 10° SSE
COSMO-SKYMED 1 2.5 18:02:30 10° NNE 18:06:53 74° ESE 18:11:12 10° S
Cosmos 304 Rocket 3.9 18:02:26 10° S 18:07:05 51° ESE 18:10:39 17° NE
CENTAUR R/B 3.3 18:05:39 10° WSW 18:11:50 50° NW 18:18:08 13° NE
Abrixas 3.3 18:10:21 10° SW 18:13:04 34° SSE 18:13:31 32° SE
Aureole 2 Rocket 2.7 18:10:14 10° SSW 18:14:05 87° ESE 18:17:15 17° NNE
Cosmos 1626 2.3 18:13:59 10° S 18:17:36 49° E 18:19:10 29° NE
FREGAT/IRIS 2.6 18:16:00 10° SSE 18:19:00 58° ENE 18:22:03 10° N
Lacrosse 5 2.9 18:15:30 10° WNW 18:20:07 34° N 18:22:14 24° NE
Cosmos 1666 Rocket 3.7 18:16:38 10° S 18:20:50 50° E 18:23:55 18° NNE
Cosmos 2151 3.7 18:17:08 10° SSW 18:21:15 53° WNW 18:25:22 10° N
Resurs 01 Rocket 2.0 18:19:11 14° SE 18:22:39 41° ENE 18:26:51 10° N
Cosmos 2084 Rocket 4.1 18:21:48 10° NNW 18:25:01 30° NNE 18:25:01 30° NNE
Resurs 1-3 4.1 18:25:39 37° ENE 18:25:53 37° ENE 18:29:56 10° N
Cosmos 2237 Rocket 2.5 18:20:53 10° SW 18:26:30 68° WNW 18:31:46 12° NNE
Cosmos 2369 Rocket 2.9 18:21:53 10° NNW 18:26:57 32° NE 18:27:47 30° ENE
Nadezhda 4 Rocket 4.0 18:21:54 10° S 18:28:03 61° E 18:34:17 10° NNE
Cosmos 1455 2.0 18:25:21 10° N 18:29:09 82° E 18:32:58 10° SSE
SJ-6B 2.8 18:28:56 10° SSE 18:33:02 89° WSW 18:37:14 10° NNW
SL-16 R/B 2.1 18:28:19 10° SSW 18:33:54 69° ESE 18:37:17 25° NE
COSMOS 2428 4.4 18:29:09 10° WSW 18:34:01 28° NW 18:38:54 10° NNE
Cosmos 1703 3.2 18:30:19 10° SSW 18:34:12 82° W 18:37:21 15° N
TIMED 4.4 18:34:03 10° NNW 18:38:28 78° ENE 18:41:09 23° SSE
Spot 2 Rocket 3.3 18:42:41 10° SSE 18:47:42 71° ENE 18:52:43 10° N
Cosmos 1092 Rocket 3.9 18:42:54 10° S 18:49:08 64° E 18:55:25 10° NNE
Cosmos 44 4.1 18:44:10 10° WSW 18:49:10 48° NW 18:51:43 26° NNE
Cosmos 2242 Rocket 3.5 18:46:34 10° N 18:51:02 89° WSW 18:55:28 10° S
Lacrosse 4 Rocket 1.4 18:47:39 10° NW 18:51:44 75° WSW 18:52:45 48° SSE
ALOS 2.1 18:47:31 10° SSE 18:52:11 82° ENE 18:56:54 10° NNW
SL-19 R/B 4.3 18:49:57 10° SSE 18:55:45 82° WSW 19:01:23 10° NNW
Iridium 4 Rocket 3.0 18:54:47 10° S 18:58:39 65° SSE 18:58:39 65° SSE
Cosmos 1805 Rocket 4.5 18:55:00 10° SSW 18:59:19 49° WNW 19:03:40 10° N
Cosmos 1340 Rocket 4.5 18:57:24 10° SW 19:00:58 32° WNW 19:04:30 10° N
Cosmos 1538 Rocket 4.0 18:57:32 10° SSW 19:02:51 81° WNW 19:05:20 33° NNE
FENGYUN 3A 3.6 19:00:28 10° SSE 19:05:50 81° WSW 19:11:16 10° NNW
Cosmos 972 Rocket 4.1 19:03:16 10° NNW 19:07:48 58° NE 19:07:48 58° NE
Aureole 1 Rocket 3.9 19:05:36 10° SSW 19:11:18 80° ESE 19:15:39 26° NNE
Cosmos 1869 4.0 19:08:09 10° NNW 19:12:07 53° W 19:15:42 12° S
Cosmos 2195 Rocket 4.3 19:07:35 10° S 19:13:36 64° E 19:13:55 63° ENE
Cosmos 1867 4.0 19:09:27 10° NNW 19:14:02 47° NNE 19:14:02 47° NNE
Sich 1 3.9 19:10:43 10° SSW 19:15:02 50° WNW 19:17:36 23° N
Cosmos 1461 3.4 19:11:30 10° SW 19:15:08 55° WNW 19:15:08 55° WNW
ATLAS 5 CENTAUR R/B 2.9 19:14:23 10° NW 19:19:05 40° NNE 19:19:05 40° NNE
USA 215 4.1 19:15:25 16° SSE 19:20:22 46° SW 19:26:39 10° WNW
ATLAS 3B R/B 3.7 19:16:05 10° NW 19:22:15 30° NNE 19:22:28 30° NNE
Cosmos 1633 Rocket 4.0 19:19:22 10° SSW 19:23:37 46° WNW 19:25:09 33° NNW
Cosmos 1417 Rocket 4.4 19:26:24 10° N 19:32:07 74° NNE 19:32:07 74° NNE
Cosmos 2219 Rocket 4.4 19:31:03 10° W 19:35:05 20° NW 19:38:30 12° N
CZ-4C R/B 3.3 19:29:14 10° NW 19:35:00 42° NNE 19:35:00 42° NNE
Cosmos 2333 Rocket 4.2 19:32:26 10° W 19:36:50 23° NW 19:40:09 14° N
Cosmos 1943 Rocket 3.4 19:31:55 10° NNW 19:34:49 29° N 19:34:49 29° N
Cosmos 1603 4.4 19:32:56 10° SSW 19:36:41 44° SSW 19:36:41 44° SSW
Cosmos 773 Rocket 4.5 19:36:34 10° SW 19:41:34 57° WNW 19:41:34 57° WNW
Cosmos 1627 Rocket 4.5 19:41:14 10° SSW 19:54:38 - N 19:47:16 77° W
Resurs 01 Rocket 3.7 19:56:43 15° SW 19:59:17 25° W 20:02:58 10° NW
Lacrosse 5 3.6 19:59:00 10° NW 20:01:27 27° NW 20:01:27 27° NW
CENTAUR R/B 4.2 19:58:31 10° WNW 20:04:17 27° N 20:05:20 26° N
USA 229 DEB 3.9 20:01:09 10° SW 20:07:14 68° W 20:07:14 68° W
USA 229 3.9 20:01:15 10° SW 20:07:17 67° W 20:07:17 67° W
Cosmos 2369 Rocket 3.3 20:05:45 10° NW 20:09:37 40° WNW 20:09:37 40° WNW
Cosmos 2237 Rocket 4.4 20:07:56 10° WNW 20:11:41 18° NW 20:13:37 15° NNW
SL-16 R/B 3.9 20:13:47 10° WSW 20:18:33 27° NW 20:19:12 26° NNW
